Location: Bijele Vode
(45.2833°N, 16.2000°E)
Time: 03:12:12
(UTC+00:00)

Nauka - Pass Details

Date: 29 September 2021
Orbit: 417 x 423 km, 51.6° (Epoch: 24 October)

Event Time Altitude Azimuth Distance (km) Brightness Sun altitude
Rises 18:14:10 0° 299° (WNW) 2,367 ? -17.4°
Reaches altitude 10° 18:16:20 10° 306° (NW) 1,502 ? -17.8°
Maximum altitude 18:19:35 43° 19° (NNE) 603 ? -18.3°
Enters shadow 18:19:57 41° 40° (NE) 624 ? -18.4°
